This is the latest recevied weather packets stored in our database for station/object DC1MPP-9. If no packets are shown the sender has not sent any weather packets the latest 10 day(s).
| Time | Temp. | Humidity | Pressure | Rain* | Wind** | Luminosity | Snow |
|---|---|---|---|---|---|---|---|
| 1777729579 | 25.56° C | 25% | 962 hPa | - | - | - | - |
| 1777729338 | 26.11° C | 26% | 962 hPa | - | - | - | - |
| 1777729097 | 26.11° C | 25% | 962 hPa | - | - | - | - |
| 1777728856 | 26.11° C | 27% | 962 hPa | - | - | - | - |
| 1777728615 | 26.11° C | 27% | 962 hPa | - | - | - | - |
| 1777728374 | 26.11° C | 27% | 962 hPa | - | - | - | - |
| 1777728133 | 26.11° C | 25% | 962 hPa | - | - | - | - |
| 1777727892 | 25.56° C | 25% | 962 hPa | - | - | - | - |
| 1777727651 | 26.11° C | 27% | 962 hPa | - | - | - | - |
| 1777727410 | 26.11° C | 27% | 962 hPa | - | - | - | - |
| 1777727169 | 26.11° C | 27% | 962 hPa | - | - | - | - |
| 1777726928 | 26.11° C | 28% | 962 hPa | - | - | - | - |
| 1777726687 | 26.11° C | 29% | 962 hPa | - | - | - | - |
| 1777726446 | 25.56° C | 25% | 963 hPa | - | - | - | - |
| 1777726205 | 25.56° C | 27% | 963 hPa | - | - | - | - |
| 1777725963 | 25.56° C | 27% | 963 hPa | - | - | - | - |
| 1777725723 | 25° C | 26% | 963 hPa | - | - | - | - |
| 1777725481 | 25.56° C | 25% | 963 hPa | - | - | - | - |
| 1777725240 | 26.11° C | 28% | 963 hPa | - | - | - | - |
| 1777724999 | 26.67° C | 27% | 963 hPa | - | - | - | - |
| 1777724758 | 26.11° C | 27% | 963 hPa | - | - | - | - |
| 1777724517 | 26.11° C | 29% | 963 hPa | - | - | - | - |
| 1777724276 | 25.56° C | 28% | 963 hPa | - | - | - | - |
| 1777724035 | 25.56° C | 27% | 963 hPa | - | - | - | - |
| 1777723794 | 25.56° C | 29% | 963 hPa | - | - | - | - |
* Rain since midnight (hover to see other rain measurements)
** Current wind speed in m/s (hover to see current wind gust speed)